Glover, North Dakota
Current Conditions -  °F | °C
As of 1:55 AM on Wednesday 22 Oct 2014 (Local Time) from KGWR Reporting Station
Clear Clear  
Wind Chill: 52°   Ceiling: Unl
Heat Index: 52°   Visibility: 10mi
Dew Point: 41°   Wind: 10mph
Humidity: 67%   Direction: 130°SE
Pressure: 29.87"   Gusts: NA
Location:  46.1099°N, 98.1335°W
Report Text: KGWR 220655Z AUTO 13009KT 10SM CLR 11/05 A2987 RMK A01 P000
Loading
Personal Weather Stations






























Interactive Weather Map
Tropical Storm Tracking
New forecast layout! Learn more

10-Day Weather Forecast

Advertisements
Track Severe Weather on mobile